CZ-3C DEB, 40198

Orbit data source: Space-Track

CZ-3C DEB, 40198 is space debris in HEO originally from a launch on Fri, 24 Feb 2012 UTC launched from the Xichang Space Center, China (XSC). Debris objects in space refer to the collection of defunct objects orbiting the Earth. Examples of debris include non-operational satellites, rocket bodies, and fragments generated from explosions, collisions, or faulty payload assembly.

Loading next visibility...
Identifier
40198, 2012-008H
Orbit
HEO
Country
Flag of CNCN / PRC
Related business
Manufacturer
CALT
Mission
Spacecraft
Bus & Motor
Unknown
Mass
Unknown
Launch date (UTC)
2012-02-24 (14 years ago)
Launch vehicle
Unknown
Launch site
Xichang Space Center, China (XSC)
Object type
Payload
Rocket body
Debris
Shape & HBR
Unknown shape, 0.3 m
Radar Cross Section
Medium (>0.1 m² and <1 m²)

Expand to show TLE details & history
Last TLE update: 18 hours ago

TLE from 18 hours ago
0 CZ-3C DEB
1 40198U 12008H   25343.12861927  .00000842  00000-0  53409-2 0  9993
2 40198  19.2626  72.9185 7266989 150.0937 286.1957  2.18786148 95449
Epoch: 2025-12-09T03:05Z
TLE epoch observation values (Epoch: 2025-12-09T03:05:12.704Z)
Latitude
0.0003°
Longitude
-51.57116°
Altitude
25,642.328 km
Speed
2.999 km/s
True Right ascension
04h 51m 23s
True Declination
0° 00' 01"
Sunlit
Object was in daylight at epoch
Visualization orbit readout
Latitude
Unknown
Longitude
Unknown
Altitude
Unknown
Speed
Unknown
Apparent Right ascension
Unknown
Apparent Declination
Unknown
Sunlit
N/A
Visualization observer readout
Local Sidereal Time
18:52:41
Azimuth
Unknown
Elevation
Unknown
Doppler factor
Unknown
Orbital elements
Apogee altitude
36,908.193 km
Perigee altitude
473.203 km
Semi-major axis
25,068.835 km
Eccentricity
0.7267
Inclination
19.2626°
RAAN
72.9185°
Arg. of periapsis
150.0937°
True anomaly
209.86955°
Mean anomaly
286.1957°
Eccentric anomaly
247.6788°
Mean motion
0.54682 °/min
Orbital period
658.36 mins
BSTAR
0.0053409
Loading maneuver chart data...
Computing Atmospheric mass density...
Loading historical data...
Loading historical data...
Loading historical data...
Loading historical data...
Loading historical data...
Loading historical data...
Loading historical data...

Documentation

Showing up to 5 results
|